CAPE
nan nan nan nan nan nan nan 1 nan nan nan 2 2 2 4 12 11 11 21 9 9 4 6 8 8 10 21 57 72 72 82 84 84 84 83 84 87 87 85 88 88 92 97 105 105 111 116 124 124 122 123 116 114 114 111 111 111 125 136 151 151 164 186 208 208 230 255 287 305 305 328 344 358 358 382 395 387 387 402 394 394 406 424 419 419 414
nan nan nan 0 0 nan nan 2 1 1 0 1 3 3 4 2 4 4 9 13 13 8 10 13 13 16 14 38 69 69 76 78 75 75 77 79 78 78 81 84 84 89 95 95 95 99 104 106 106 104 106 108 109 109 109 111 111 116 123 135 135 150 169 191 191 205 231 259 286 286 310 325 348 348 374 397 407 407 419 405 405 401 417 418 418 419
nan nan nan 1 1 0 nan 0 3 3 4 2 3 3 5 6 6 6 7 9 9 15 16 15 15 16 14 28 62 62 63 68 69 69 72 73 74 74 77 79 79 82 84 84 84 91 89 91 91 92 95 98 104 104 104 107 107 114 119 132 132 148 159 180 180 199 218 236 260 260 276 292 315 315 353 392 414 414 418 419 419 396 411 407 407 421
1 nan 0 3 3 2 1 0 3 3 6 5 8 8 7 7 8 8 10 13 13 22 20 16 16 12 8 14 40 40 60 64 66 66 66 67 69 69 70 72 72 74 76 79 79 82 83 85 85 88 87 91 94 94 98 102 102 109 119 130 130 143 162 176 176 200 209 224 239 239 253 261 281 281 328 375 409 409 414 410 410 390 401 393 393 407
6 3 2 2 2 1 3 3 4 4 9 11 11 11 11 10 15 15 18 24 24 24 16 14 14 7 4 9 31 31 51 59 60 60 61 61 63 63 67 65 65 69 70 74 74 80 83 84 84 87 91 91 91 91 94 98 98 104 111 124 124 144 159 176 176 197 205 219 235 235 245 243 262 262 296 345 376 376 400 385 385 389 401 417 417 435
7 5 4 3 3 1 5 7 10 10 12 10 15 15 14 18 23 23 25 33 33 22 10 7 7 3 1 2 23 23 46 51 51 51 54 56 61 61 63 63 63 65 68 77 77 80 86 86 86 90 90 92 92 92 98 100 100 105 110 123 123 138 155 172 172 187 196 200 216 216 220 233 247 247 268 291 315 315 334 347 347 337 345 377 377 414
8 4 7 4 4 4 6 8 13 13 13 13 19 19 29 34 28 28 21 16 16 14 9 5 5 3 2 6 25 25 39 40 41 41 45 51 57 57 60 61 61 62 68 73 73 81 84 88 88 88 90 91 91 91 94 99 99 105 115 123 123 137 152 159 159 167 166 175 175 175 189 201 212 212 227 239 248 248 259 273 273 295 305 326 326 360
6 6 11 8 8 10 11 10 20 20 28 22 24 24 28 18 15 15 19 24 24 16 3 1 1 1 nan nan 1 1 1 0 1 1 8 19 37 37 46 52 52 57 61 70 70 74 76 77 77 78 80 82 85 85 89 88 88 92 97 98 98 106 113 120 120 127 130 132 138 138 143 148 157 157 165 174 187 187 198 219 219 238 268 292 292 310
14 10 13 17 17 17 11 17 29 29 23 32 30 30 21 16 10 10 12 9 9 11 3 1 1 1 1 1 0 0 7 10 4 4 7 5 8 8 29 41 41 48 58 61 61 65 67 67 67 69 74 76 81 81 82 78 78 79 78 83 83 87 95 104 104 114 121 127 133 133 138 141 144 144 150 152 165 165 179 196 196 228 255 300 300 325
19 15 8 9 9 16 24 23 36 36 36 37 35 35 18 9 6 6 7 5 5 4 4 3 3 2 1 1 2 2 5 12 41 41 51 39 56 56 38 27 27 24 44 50 50 55 56 56 56 59 61 67 70 70 70 68 68 65 69 73 73 80 84 89 89 104 115 121 126 126 134 143 141 141 141 142 153 153 161 179 179 195 233 283 283 323
13 22 16 16 16 22 29 34 38 38 37 15 9 9 5 7 9 9 4 3 3 2 1 2 2 3 2 2 2 2 4 2 5 5 20 33 36 36 35 27 27 25 33 38 38 39 40 44 44 50 54 56 59 59 55 56 56 57 62 69 69 74 77 81 81 93 103 116 121 121 134 137 138 138 142 138 149 149 150 161 161 171 214 254 254 287
23 22 20 17 17 24 26 24 16 16 10 5 5 5 7 12 15 15 7 4 4 4 3 3 3 5 3 4 5 5 5 2 0 0 1 4 11 11 7 4 4 8 15 20 20 25 31 37 37 41 42 41 49 49 48 45 45 53 59 67 67 72 75 78 78 86 99 111 120 120 133 139 143 143 146 146 147 147 153 157 157 169 201 233 233 265
30 14 15 36 36 27 13 5 3 3 4 5 6 6 6 5 10 10 13 6 6 5 2 7 7 5 5 2 6 6 5 2 0 0 0 1 2 2 1 nan nan nan 0 0 0 0 14 28 28 33 34 33 40 40 45 44 44 53 61 68 68 71 75 78 78 84 99 109 121 121 132 145 150 150 155 162 162 162 164 165 165 176 199 220 220 244
34 28 23 21 21 11 5 3 5 5 7 8 7 7 6 6 8 8 5 5 5 5 3 3 3 2 5 5 6 6 5 1 nan nan nan 1 5 5 4 0 0 nan 0 0 0 0 8 13 13 7 22 24 31 31 35 46 46 57 65 69 69 78 81 87 87 97 106 119 133 133 143 146 155 155 161 165 165 165 165 166 166 179 187 207 207 218
32 26 15 8 8 7 6 6 5 5 5 6 5 5 7 8 7 7 2 5 5 7 6 9 9 9 5 5 4 4 5 3 1 1 1 1 6 6 4 2 2 1 1 1 1 0 9 7 7 1 2 8 13 13 26 38 38 63 69 79 79 82 88 98 98 104 117 126 135 135 144 146 147 147 156 161 161 161 161 162 162 167 169 185 185 196
14 8 6 10 10 10 8 7 4 4 5 5 8 8 7 5 4 4 3 6 6 9 7 6 6 9 5 5 4 4 3 4 4 4 2 1 2 2 2 2 2 1 1 0 0 1 3 1 1 0 1 11 27 27 39 50 50 67 76 86 86 89 94 101 101 111 118 126 135 135 143 141 146 146 155 149 151 151 151 155 155 159 161 168 168 173
13 11 8 9 9 7 7 5 5 5 6 5 6 6 6 5 4 4 10 13 13 11 12 9 9 5 3 3 2 2 4 3 4 4 3 2 3 3 3 3 3 2 1 0 0 0 0 0 0 1 1 18 35 35 44 54 54 67 76 84 84 89 98 105 105 112 125 127 136 136 139 146 145 145 150 153 150 150 147 148 148 152 158 164 164 166
16 15 13 7 7 5 5 3 4 4 7 5 5 5 5 7 12 12 7 14 14 11 14 10 10 7 2 3 0 0 3 3 3 3 2 2 2 2 3 2 2 1 1 1 1 0 0 1 1 2 5 34 43 43 46 57 57 65 75 80 80 87 95 103 103 115 122 131 136 136 140 143 145 145 146 145 146 146 148 149 149 151 157 162 162 165
11 12 8 8 8 6 5 4 3 3 5 6 5 5 7 10 19 19 16 15 15 12 12 4 4 3 2 3 0 0 2 2 1 1 2 1 2 2 2 1 1 1 1 1 1 2 2 4 4 16 28 37 44 44 50 56 56 61 68 75 75 81 84 92 92 104 114 118 126 126 127 134 133 133 136 138 145 145 148 155 155 157 159 167 167 170
12 15 10 8 8 9 9 7 5 5 9 12 12 12 17 17 15 15 17 15 15 9 7 2 2 3 2 2 0 0 2 3 4 4 3 5 3 3 1 2 2 1 1 0 0 1 2 5 5 9 24 34 39 39 43 47 47 54 60 67 67 74 78 81 81 91 99 105 113 113 115 120 123 123 127 128 132 132 134 143 143 150 152 155 155 159
14 16 10 8 8 10 12 7 7 7 17 23 23 23 19 20 23 23 18 11 11 9 3 8 8 4 3 3 2 2 3 2 3 3 2 2 1 1 0 1 1 1 1 1 1 2 3 3 3 2 11 27 33 33 36 41 41 49 55 58 58 62 70 78 78 83 93 102 104 104 110 111 112 112 112 113 114 114 121 123 123 132 139 143 143 149
15 12 9 9 9 5 14 14 23 23 31 28 23 23 22 27 24 24 15 12 12 8 6 8 8 5 4 5 5 5 6 5 4 4 2 6 2 2 1 1 1 1 2 1 1 2 2 2 2 1 9 23 27 27 33 38 38 44 49 52 52 60 62 73 73 76 86 89 95 95 101 103 104 104 106 107 108 108 112 112 112 119 126 132 132 135
15 11 8 6 6 8 16 20 33 33 42 30 39 39 31 20 17 17 19 13 13 9 9 7 7 5 5 7 7 7 6 4 2 2 2 8 2 2 1 1 1 0 1 1 1 1 2 0 0 0 5 22 23 23 28 34 34 39 44 49 49 52 55 61 61 67 73 80 87 87 94 100 102 102 106 109 106 106 110 114 114 117 121 121 121 125
16 14 7 10 10 24 29 26 31 31 44 43 37 37 25 15 16 16 20 25 25 15 12 8 8 7 9 9 6 6 4 3 3 3 nan 3 2 2 0 1 1 0 0 1 1 1 1 nan nan nan 0 15 19 19 24 28 28 34 38 44 44 46 51 54 54 62 67 73 79 79 85 95 101 101 103 109 107 107 112 116 116 119 123 119 119 122
14 17 15 20 20 38 36 31 47 47 52 39 23 23 17 27 32 32 29 26 26 16 10 3 3 4 8 10 2 2 2 3 1 1 0 2 1 1 0 1 1 0 1 0 0 1 0 nan nan nan nan 2 12 12 17 24 24 27 34 37 37 43 48 54 54 59 62 68 73 73 80 86 89 89 92 94 97 97 99 104 104 109 113 112 112 110
24 24 24 38 38 79 112 134 137 137 94 31 13 13 16 27 27 27 19 15 15 11 8 5 5 3 4 2 0 0 0 3 2 2 nan nan 2 2 0 1 1 0 2 0 0 1 nan nan nan nan nan nan 6 6 12 18 18 22 27 34 34 38 46 51 51 56 60 61 65 65 66 71 76 76 79 82 84 84 84 90 90 95 98 94 94 99
52 63 90 113 113 133 136 123 110 110 94 65 31 31 22 20 18 18 14 8 8 8 4 5 5 6 5 2 1 1 1 2 2 2 0 nan 0 0 1 2 2 2 0 nan nan nan 1 0 0 nan nan nan 0 0 9 13 13 17 20 26 26 33 41 46 46 51 52 56 57 57 60 64 67 67 69 73 73 73 77 80 80 83 81 83 83 85
72 87 99 101 101 91 78 66 61 61 64 69 83 83 46 14 12 12 8 5 5 4 2 6 6 8 6 0 1 1 0 1 1 1 1 3 1 1 0 0 0 1 1 0 0 2 10 3 3 nan nan nan nan nan 3 9 9 10 13 16 16 23 28 30 30 33 39 40 47 47 51 56 59 59 62 67 69 69 69 75 75 76 76 66 66 39
73 78 70 55 55 44 40 44 45 45 53 56 61 61 39 9 12 12 11 7 7 2 4 5 5 7 5 3 0 0 nan nan 0 0 1 4 3 3 1 0 0 1 1 1 1 2 3 1 1 nan nan nan nan nan nan 4 4 4 8 11 11 16 14 15 15 19 23 26 32 32 37 42 49 49 55 60 65 65 68 71 71 69 59 49 49 28
37 32 26 25 25 27 27 22 29 29 40 46 48 48 37 12 14 14 11 6 6 4 6 8 8 7 5 3 1 1 nan nan nan nan 2 2 1 1 1 0 0 2 nan 2 2 1 0 nan nan nan nan nan nan nan nan nan nan nan 1 6 6 5 6 9 9 12 16 19 21 21 25 30 38 38 44 51 57 57 59 65 65 58 48 31 31 27
10 6 5 9 9 11 9 8 15 15 30 37 37 37 32 15 10 10 9 8 8 5 6 7 7 6 4 3 2 2 nan nan nan nan nan 2 2 2 2 3 3 3 2 1 1 0 0 nan nan nan 0 nan nan nan nan nan nan nan nan nan nan 0 3 3 3 6 10 14 16 16 19 23 29 29 35 44 49 49 52 60 60 55 28 21 21 18
4 3 2 3 3 4 2 3 3 3 5 5 6 6 12 11 7 7 5 3 3 4 4 4 4 5 5 2 0 0 0 nan 0 0 3 1 5 5 4 1 1 4 4 2 2 nan 0 1 1 nan 0 nan nan nan nan nan nan nan nan nan nan nan nan 1 1 1 3 7 9 9 11 14 19 19 24 29 35 35 40 45 45 45 23 7 7 9
5 4 4 5 5 4 3 3 3 3 4 4 4 4 4 5 8 8 5 3 3 3 6 4 4 3 4 2 2 2 1 nan 1 1 10 3 3 3 4 3 3 4 5 4 4 3 3 1 1 1 0 nan nan nan nan nan nan nan nan nan nan nan nan 0 0 0 1 3 5 5 7 9 14 14 19 24 28 28 35 37 37 40 36 4 4 7
5 5 5 4 4 2 2 2 2 2 1 3 3 3 4 3 3 3 5 3 3 3 2 0 0 3 0 1 1 1 nan nan 2 2 7 2 1 1 1 1 1 0 1 2 2 4 1 1 1 0 0 nan nan nan nan nan nan nan 0 nan nan nan nan nan nan 0 0 0 nan nan 0 0 8 8 10 16 22 22 27 34 34 37 47 24 24 9
5 6 5 3 3 3 3 2 1 1 1 1 2 2 3 3 1 1 2 3 3 3 2 2 2 1 0 nan 0 0 nan nan 0 0 6 2 2 2 1 2 2 1 1 3 3 4 1 2 2 3 1 0 nan nan nan nan nan nan nan nan nan nan nan nan nan nan nan nan nan nan nan nan nan nan 2 8 16 16 25 32 32 39 45 52 52 32
6 5 3 3 3 3 1 1 0 0 0 0 0 0 1 2 2 2 1 1 1 3 6 4 4 3 0 nan nan nan 0 nan 2 2 7 2 0 0 0 0 0 0 0 2 2 3 2 3 3 4 3 1 nan nan nan nan nan nan nan nan nan nan nan nan nan nan nan nan nan nan nan nan nan nan 0 9 19 19 24 31 31 36 39 48 48 45
5 6 3 3 3 2 2 1 0 0 0 nan 0 0 1 0 0 0 1 3 3 3 4 9 9 5 7 0 nan nan nan 0 2 2 5 1 0 0 nan 0 0 2 0 0 0 1 1 3 3 3 1 0 nan nan nan nan nan nan nan nan nan nan nan nan nan nan nan 0 0 0 1 nan 0 0 1 9 14 14 20 28 28 27 33 38 38 42
4 3 3 3 3 2 2 1 0 0 0 0 0 0 1 0 1 1 1 2 2 5 2 1 1 0 6 10 2 2 nan 1 0 0 1 1 nan nan 0 1 1 3 1 0 0 0 1 0 0 2 0 nan 0 0 1 0 0 0 0 0 0 0 nan nan nan 0 0 1 2 2 1 0 nan nan 0 1 1 1 1 3 3 12 21 25 25 34
2 2 3 4 4 3 1 0 0 0 0 0 1 1 0 0 1 1 0 1 1 1 2 1 1 0 0 2 8 8 7 4 0 0 0 0 nan nan nan 0 0 0 0 0 0 0 nan 0 0 0 0 0 0 0 0 0 0 0 0 0 0 0 nan nan nan 0 0 nan 1 1 nan nan nan nan nan 0 0 0 0 1 1 5 6 3 3 16
2 2 3 4 4 2 0 0 0 0 0 1 2 2 2 1 1 1 1 0 0 0 1 1 1 1 2 3 4 4 4 2 4 4 2 0 1 1 nan nan nan 0 1 0 0 0 nan 0 0 1 1 nan 1 1 0 0 0 0 2 nan nan nan 0 nan nan nan nan nan nan nan nan nan 1 1 1 1 0 0 0 0 0 2 4 0 0 0
5 3 3 2 2 2 1 0 0 0 0 1 1 1 1 2 2 2 0 0 0 1 1 1 1 2 1 1 0 0 0 0 1 1 nan nan nan nan 0 nan nan 0 0 1 1 0 nan nan nan 0 1 nan 0 0 1 1 1 4 5 0 0 0 0 1 1 nan nan nan 0 0 1 1 2 2 0 2 0 0 1 1 1 1 4 0 0 nan
7 4 1 1 1 0 0 0 1 1 1 1 1 1 1 1 1 1 1 1 1 1 1 1 1 1 1 0 0 0 nan nan nan nan nan nan nan nan 0 nan nan nan nan 0 0 1 1 0 0 2 2 nan nan nan 0 0 0 2 2 0 0 0 1 2 2 nan nan nan nan nan 3 0 nan nan 1 2 2 2 7 6 6 12 12 3 3 0
5 3 1 1 1 0 1 3 2 2 0 nan 0 0 0 nan 0 0 2 2 2 2 2 1 1 1 1 0 nan nan nan nan 0 0 0 nan nan nan nan 0 0 0 nan 0 0 0 4 3 3 1 1 1 nan nan 0 1 1 1 1 1 1 0 0 0 0 nan nan nan nan nan 0 1 1 1 3 3 5 5 9 15 15 31 25 4 4 4
6 4 3 2 2 2 2 1 0 0 0 nan 0 0 nan nan 1 1 2 2 2 3 3 0 0 2 1 0 nan nan nan nan nan nan nan nan nan nan 0 0 0 1 0 0 0 0 3 5 5 2 2 1 1 1 1 0 0 0 0 1 1 0 nan 0 0 nan nan nan nan nan 0 2 3 3 2 3 3 3 8 9 9 7 20 11 11 7
4 4 3 3 3 2 1 1 0 0 1 0 1 1 0 0 2 2 2 2 2 3 2 1 1 2 0 0 0 0 nan nan nan nan nan 0 5 5 3 1 1 2 2 0 0 nan 0 1 1 1 1 0 nan nan 0 0 0 0 1 1 1 0 0 1 1 nan nan nan nan nan 0 2 1 1 nan 1 2 2 3 3 3 6 12 13 13 10
4 4 4 2 2 2 2 1 1 1 1 0 1 1 1 1 1 1 1 2 2 3 2 1 1 nan nan 0 0 0 0 nan nan nan nan nan 1 1 3 5 5 3 1 2 2 1 nan nan nan 0 0 1 2 2 1 0 0 0 1 2 2 1 1 2 2 1 1 0 0 0 1 2 0 0 nan nan 0 0 0 2 2 5 13 17 17 13
5 4 4 3 3 2 1 2 2 2 0 1 1 1 1 0 1 1 1 2 2 1 2 0 0 nan nan nan nan nan nan 0 0 0 nan nan 0 0 2 3 3 7 3 4 4 2 1 nan nan 0 nan 0 1 1 0 0 0 1 0 1 1 0 1 1 1 1 1 1 0 0 2 2 0 0 0 nan 0 0 2 5 5 10 14 16 16 15
5 4 3 3 3 2 2 1 1 1 2 1 1 1 1 1 1 1 2 2 2 2 1 0 0 nan 0 0 0 0 nan 0 0 0 0 nan 0 0 0 2 2 5 7 6 6 6 5 3 3 3 3 0 0 0 nan 0 0 0 0 0 0 1 1 1 1 1 2 2 2 2 1 0 nan nan 1 1 3 3 3 3 3 3 4 7 7 8
5 2 2 3 3 2 1 0 1 1 0 1 1 1 1 3 9 9 2 0 0 0 0 0 0 0 nan nan nan nan nan 0 1 1 0 nan nan nan 1 2 2 3 4 5 5 5 4 6 6 6 2 2 1 1 0 nan nan nan nan nan nan 1 1 1 1 1 2 1 0 0 nan nan 0 0 nan 1 3 3 1 0 0 nan 0 2 2 3
3 1 1 2 2 2 1 1 1 1 1 2 1 1 1 1 1 1 1 1 1 nan nan 0 0 nan nan 0 nan nan nan nan 1 1 1 0 0 0 1 1 1 3 2 3 3 3 3 5 5 6 6 2 nan nan 1 0 0 0 0 0 0 0 1 1 1 2 2 1 1 1 2 2 1 1 0 0 1 1 nan nan nan nan nan 0 0 3
2 2 1 2 2 2 2 2 2 2 1 1 1 1 1 1 1 1 1 0 0 0 0 0 0 nan nan nan nan nan nan nan 0 0 0 0 0 0 0 1 1 1 2 2 2 2 2 1 1 0 0 4 8 8 6 5 5 2 1 0 0 0 0 1 1 3 3 2 2 2 2 2 2 2 0 0 1 1 1 nan nan 0 nan nan nan 2
CIN
nan nan nan nan nan nan nan -0 nan nan nan -0 -0 -0 -0 -0 -0 -0 -0 -0 -0 -0 -0 -0 -0 -0 -0 -0 -0 -0 -0 -0 -0 -0 -0 -0 -0 -0 -0 -0 -0 -0 -0 -0 -0 -0 -0 -0 -0 -0 -0 -0 -0 -0 -0 -0 -0 -0 -0 -0 -0 -0 -0 -0 -0 -0 -0 -0 -0 -0 -0 -0 -0 -0 -0 -0 -0 -0 -0 -0 -0 -0 -0 -0 -0 -0
nan nan nan -0 -0 nan nan -0 -0 -0 -0 -0 -0 -0 -0 -0 -0 -0 -0 -0 -0 -0 -0 -0 -0 -0 -0 -0 -0 -0 -0 -0 -0 -0 -0 -0 -0 -0 -0 -0 -0 -0 -0 -0 -0 -0 -0 -0 -0 -0 -0 -0 -0 -0 -0 -0 -0 -0 -0 -0 -0 -0 -0 -0 -0 -0 -0 -0 -0 -0 -0 -0 -0 -0 -0 -0 -0 -0 -0 -0 -0 -0 -0 -0 -0 -0
nan nan nan -0 -0 -0 nan -0 -0 -0 -0 -0 -0 -0 -0 -0 -0 -0 -0 -0 -0 -0 -0 -0 -0 -0 -0 -0 -0 -0 -0 -0 -0 -0 -0 -0 -0 -0 -0 -0 -0 -0 -0 -0 -0 -0 -0 -0 -0 -0 -0 -0 -0 -0 -0 -0 -0 -0 -0 -0 -0 -0 -0 -0 -0 -0 -0 -0 -0 -0 -0 -0 -0 -0 -0 -0 -0 -0 -0 -0 -0 -0 -0 -0 -0 -0
-0 nan -0 -0 -0 -0 -0 -0 -0 -0 -0 -0 -0 -0 -0 -0 -0 -0 -0 -0 -0 -0 -0 -0 -0 -0 -0 -0 -0 -0 -0 -0 -0 -0 -0 -0 -0 -0 -0 -0 -0 -0 -0 -0 -0 -0 -0 -0 -0 -0 -0 -0 -0 -0 -0 -0 -0 -0 -0 -0 -0 -0 -0 -0 -0 -0 -0 -0 -0 -0 -0 -0 -0 -0 -0 -0 -0 -0 -0 -0 -0 -0 -0 -0 -0 -0
-0 -0 -0 -0 -0 -0 -0 -0 -0 -0 -0 -0 -0 -0 -0 -0 -0 -0 -0 -0 -0 -0 -0 -0 -0 -0 -0 -0 -0 -0 -0 -0 -0 -0 -0 -0 -0 -0 -0 -0 -0 -0 -0 -0 -0 -0 -0 -0 -0 -0 -0 -0 -0 -0 -0 -0 -0 -0 -0 -0 -0 -0 -0 -0 -0 -0 -0 -0 -0 -0 -0 -0 -0 -0 -0 -0 -0 -0 -0 -0 -0 -0 -0 -0 -0 -0
-0 -0 -0 -0 -0 -0 -0 -0 -0 -0 -0 -0 -0 -0 -0 -0 -0 -0 -0 -0 -0 -0 -0 -0 -0 -0 -0 -0 -0 -0 -0 -0 -0 -0 -0 -0 -0 -0 -0 -0 -0 -0 -0 -0 -0 -0 -0 -0 -0 -0 -0 -0 -0 -0 -0 -0 -0 -0 -0 -0 -0 -0 -0 -0 -0 -0 -0 -0 -0 -0 -0 -0 -0 -0 -0 -0 -0 -0 -0 -0 -0 -0 -0 -0 -0 -0
-0 -0 -0 -0 -0 -0 -0 -0 -0 -0 -0 -0 -0 -0 -0 -0 -0 -0 -0 -0 -0 -0 -0 -0 -0 -0 -0 -0 -0 -0 -0 -0 -0 -0 -0 -0 -0 -0 -0 -0 -0 -0 -0 -0 -0 -0 -0 -0 -0 -0 -0 -0 -0 -0 -0 -0 -0 -0 -0 -0 -0 -0 -0 -0 -0 -0 -0 -0 -0 -0 -0 -0 -0 -0 -0 -0 -0 -0 -0 -0 -0 -0 -0 -0 -0 -0
-0 -0 -0 -0 -0 -0 -0 -0 -0 -0 -0 -0 -0 -0 -0 -0 -0 -0 -0 -0 -0 -0 -0 -0 -0 -0 nan nan -0 -0 -0 -0 -0 -0 -0 -0 -0 -0 -0 -0 -0 -0 -0 -0 -0 -0 -0 -0 -0 -0 -0 -0 -0 -0 -0 -0 -0 -0 -0 -0 -0 -0 -0 -0 -0 -0 -0 -0 -0 -0 -0 -0 -0 -0 -0 -0 -0 -0 -0 -0 -0 -0 -0 -0 -0 -0
-0 -0 -0 -0 -0 -0 -0 -0 -0 -0 -1 -0 -0 -0 -0 -0 -0 -0 -0 -0 -0 -0 -0 -0 -0 -0 -0 -0 -0 -0 -0 -0 -0 -0 -0 -0 -0 -0 -0 -0 -0 -0 -0 -0 -0 -0 -0 -0 -0 -0 -0 -0 -0 -0 -0 -0 -0 -0 -0 -0 -0 -0 -0 -0 -0 -0 -0 -0 -0 -0 -0 -0 -0 -0 -0 -0 -0 -0 -0 -0 -0 -0 -0 -0 -0 -0
-0 -0 -0 -0 -0 -0 -0 -0 -0 -0 -0 -0 -0 -0 -0 -0 -0 -0 -0 -0 -0 -0 -0 -0 -0 -0 -0 -0 -0 -0 -0 -0 -0 -0 -0 -0 -0 -0 -0 -0 -0 -0 -0 -0 -0 -0 -0 -0 -0 -0 -0 -0 -0 -0 -0 -0 -0 -0 -0 -0 -0 -0 -0 -0 -0 -0 -0 -0 -0 -0 -0 -0 -0 -0 -0 -0 -0 -0 -0 -0 -0 -0 -0 -0 -0 -0
-0 -0 -0 -0 -0 -1 -0 -0 -0 -0 -0 -0 -0 -0 -0 -0 -0 -0 -0 -0 -0 -0 -0 -0 -0 -0 -0 -0 -0 -0 -0 -0 -0 -0 -0 -0 -0 -0 -0 -0 -0 -0 -0 -0 -0 -0 -0 -0 -0 -0 -0 -0 -0 -0 -0 -0 -0 -0 -0 -0 -0 -0 -0 -0 -0 -0 -0 -0 -0 -0 -0 -0 -0 -0 -0 -0 -0 -0 -0 -0 -0 -0 -0 -0 -0 -0
-0 -0 -0 -0 -0 -0 -0 -0 -0 -0 -0 -0 -0 -0 -0 -0 -0 -0 -0 -0 -0 -0 -0 -0 -0 -0 -0 -0 -0 -0 -0 -0 -0 -0 -0 -0 -0 -0 -0 -0 -0 -0 -0 -0 -0 -0 -0 -0 -0 -0 -0 -0 -0 -0 -0 -0 -0 -0 -0 -0 -0 -0 -0 -0 -0 -0 -0 -0 -0 -0 -0 -0 -0 -0 -0 -0 -0 -0 -0 -0 -0 -0 -0 -0 -0 -0
-0 -2 -0 -0 -0 -0 -0 -0 -0 -0 -0 -0 -0 -0 -0 -0 -0 -0 -0 -0 -0 -0 -0 -0 -0 -0 -0 -0 -0 -0 -0 -0 -0 -0 -0 -0 -0 -0 -0 nan nan nan -0 -0 -0 -0 -0 -0 -0 -0 -0 -0 -0 -0 -0 -0 -0 -0 -0 -0 -0 -0 -0 -0 -0 -0 -0 -0 -0 -0 -0 -0 -0 -0 -0 -0 -0 -0 -0 -0 -0 -0 -0 -0 -0 -0
-0 -0 -0 -0 -0 -0 -0 -0 -0 -0 -0 -0 -0 -0 -0 -0 -0 -0 -0 -0 -0 -0 -0 -0 -0 -0 -0 -0 -0 -0 -0 -0 nan nan nan -0 -0 -0 -0 -0 -0 nan -0 -0 -0 -0 -0 -0 -0 -0 -0 -0 -0 -0 -0 -0 -0 -0 -0 -0 -0 -0 -0 -0 -0 -0 -0 -0 -0 -0 -0 -0 -0 -0 -0 -0 -0 -0 -0 -0 -0 -0 -0 -0 -0 -0
-0 -0 -0 -0 -0 -0 -0 -0 -0 -0 -0 -0 -0 -0 -0 -0 -0 -0 -0 -0 -0 -0 -0 -0 -0 -0 -0 -0 -0 -0 -0 -0 -0 -0 -0 -0 -0 -0 -0 -0 -0 -0 -0 -0 -0 -0 -0 -0 -0 -0 -0 -0 -0 -0 -0 -0 -0 -0 -0 -0 -0 -0 -0 -0 -0 -0 -0 -0 -0 -0 -0 -0 -0 -0 -0 -0 -0 -0 -0 -0 -0 -0 -0 -0 -0 -0
-0 -0 -0 -0 -0 -0 -0 -0 -0 -0 -0 -0 -0 -0 -0 -0 -0 -0 -0 -0 -0 -0 -1 -0 -0 -0 -0 -0 -0 -0 -0 -0 -0 -0 -0 -0 -0 -0 -0 -0 -0 -0 -0 -0 -0 -0 -0 -0 -0 -0 -0 -0 -0 -0 -0 -0 -0 -0 -0 -0 -0 -0 -0 -0 -0 -0 -0 -0 -0 -0 -0 -0 -0 -0 -0 -0 -0 -0 -0 -0 -0 -0 -0 -0 -0 -0
-0 -0 -0 -0 -0 -0 -0 -0 -0 -0 -0 -0 -0 -0 -0 -0 -0 -0 -0 -0 -0 -1 -0 -0 -0 -0 -0 -0 -0 -0 -0 -0 -0 -0 -0 -0 -0 -0 -0 -0 -0 -0 -0 -0 -0 -0 -0 -0 -0 -0 -0 -0 -0 -0 -0 -0 -0 -0 -0 -0 -0 -0 -0 -0 -0 -0 -0 -0 -0 -0 -0 -0 -0 -0 -0 -0 -0 -0 -0 -0 -0 -0 -0 -0 -0 -0
-0 -0 -0 -0 -0 -0 -0 -0 -0 -0 -0 -0 -0 -0 -0 -0 -0 -0 -1 -0 -0 -1 -0 -0 -0 -0 -0 -0 -0 -0 -0 -0 -0 -0 -0 -0 -0 -0 -0 -0 -0 -0 -0 -0 -0 -0 -0 -0 -0 -0 -0 -0 -0 -0 -0 -0 -0 -0 -0 -0 -0 -0 -0 -0 -0 -0 -0 -0 -0 -0 -0 -0 -0 -0 -0 -0 -0 -0 -0 -0 -0 -0 -0 -0 -0 -0
-0 -0 -0 -0 -0 -0 -0 -0 -0 -0 -0 -0 -0 -0 -0 -0 -0 -0 -0 -0 -0 -0 -0 -2 -2 -0 -0 -0 -0 -0 -0 -0 -0 -0 -0 -0 -0 -0 -0 -0 -0 -0 -0 -0 -0 -0 -0 -0 -0 -0 -0 -0 -0 -0 -0 -0 -0 -0 -0 -0 -0 -0 -0 -0 -0 -0 -0 -0 -0 -0 -0 -0 -0 -0 -0 -0 -0 -0 -0 -0 -0 -0 -0 -0 -0 -0
-0 -0 -0 -0 -0 -0 -0 -0 -0 -0 -0 -0 -0 -0 -0 -0 -0 -0 -0 -0 -0 -0 -0 -1 -1 -0 -0 -0 -0 -0 -0 -0 -0 -0 -1 -0 -0 -0 -0 -0 -0 -0 -0 -0 -0 -0 -0 -0 -0 -0 -0 -0 -0 -0 -0 -0 -0 -0 -0 -0 -0 -0 -0 -0 -0 -0 -0 -0 -0 -0 -0 -0 -0 -0 -0 -0 -0 -0 -0 -0 -0 -0 -0 -0 -0 -0
-0 -0 -0 -0 -0 -0 -0 -0 -0 -0 -0 -0 -0 -0 -0 -0 -0 -0 -0 -0 -0 -0 -1 -0 -0 -0 -0 -0 -0 -0 -0 -0 -0 -0 -0 -0 -0 -0 -0 -0 -0 -0 -0 -0 -0 -0 -0 -0 -0 -0 -0 -0 -0 -0 -0 -0 -0 -0 -0 -0 -0 -0 -0 -0 -0 -0 -0 -0 -0 -0 -0 -0 -0 -0 -0 -0 -0 -0 -0 -0 -0 -0 -0 -0 -0 -0
-0 -0 -0 -0 -0 -0 -0 -0 -0 -0 -0 -7 -0 -0 -0 -0 -0 -0 -0 -0 -0 -0 -0 -0 -0 -0 -0 -0 -0 -0 -0 -1 -0 -0 -1 -0 -0 -0 -0 -0 -0 -0 -0 -0 -0 -0 -0 -0 -0 -0 -0 -0 -0 -0 -0 -0 -0 -0 -0 -0 -0 -0 -0 -0 -0 -0 -0 -0 -0 -0 -0 -0 -0 -0 -0 -0 -0 -0 -0 -0 -0 -0 -0 -0 -0 -0
-0 -0 -0 -0 -0 -0 -0 -0 -0 -0 -0 -2 -0 -0 -0 -0 -0 -0 -0 -0 -0 -0 -0 -0 -0 -0 -0 -0 -0 -0 -0 -0 -0 -0 -0 -0 -0 -0 -0 -0 -0 -0 -0 -0 -0 -0 -0 -0 -0 -0 -0 -0 -0 -0 -0 -0 -0 -0 -0 -0 -0 -0 -0 -0 -0 -0 -0 -0 -0 -0 -0 -0 -0 -0 -0 -0 -0 -0 -0 -0 -0 -0 -0 -0 -0 -0
-0 -0 -0 -0 -0 -0 -0 -0 -0 -0 -0 -0 -0 -0 -1 -0 -0 -0 -0 -0 -0 -0 -0 -0 -0 -0 -0 -0 -0 -0 -0 -0 -0 -0 nan -0 -0 -0 -0 -0 -0 -0 -0 -0 -0 -0 -0 nan nan nan -0 -0 -0 -0 -0 -0 -0 -0 -0 -0 -0 -0 -0 -0 -0 -0 -0 -0 -0 -0 -0 -0 -0 -0 -0 -0 -0 -0 -0 -0 -0 -0 -0 -0 -0 -0
-0 -0 -0 -0 -0 -3 -0 -0 -0 -0 -1 -0 -0 -0 -0 -0 -0 -0 -0 -0 -0 -0 -0 -0 -0 -0 -0 -0 -0 -0 -0 -0 -0 -0 -0 -0 -0 -0 -0 -0 -0 -0 -0 -0 -0 -0 -0 nan nan nan nan -0 -0 -0 -0 -0 -0 -0 -0 -0 -0 -0 -0 -0 -0 -0 -0 -0 -0 -0 -0 -0 -0 -0 -0 -0 -0 -0 -0 -0 -0 -0 -0 -0 -0 -0
-0 -0 -0 -0 -0 -0 -0 -0 -0 -0 -0 -0 -0 -0 -0 -0 -0 -0 -0 -0 -0 -0 -0 -0 -0 -0 -0 -0 -0 -0 -0 -0 -0 -0 nan nan -0 -0 -0 -0 -0 -0 -0 -0 -0 -0 nan nan nan nan nan nan -0 -0 -0 -0 -0 -0 -0 -0 -0 -0 -0 -0 -0 -0 -0 -0 -0 -0 -0 -0 -0 -0 -0 -0 -0 -0 -0 -0 -0 -0 -0 -0 -0 -0
-0 -0 -0 -0 -0 -0 -0 -0 -0 -0 -0 -0 -0 -0 -0 -0 -0 -0 -0 -0 -0 -0 -0 -0 -0 -0 -0 -0 -0 -0 -0 -0 -0 -0 -0 nan -0 -0 -0 -0 -0 -0 -0 nan nan nan -0 -0 -0 nan nan nan -0 -0 -0 -0 -0 -0 -0 -0 -0 -0 -0 -0 -0 -0 -0 -0 -0 -0 -0 -0 -0 -0 -0 -0 -0 -0 -0 -0 -0 -0 -0 -0 -0 -0
-0 -0 -0 -0 -0 -0 -0 -0 -0 -0 -0 -0 -0 -0 -0 -0 -0 -0 -0 -0 -0 -0 -0 -0 -0 -0 -0 -0 -0 -0 -0 -0 -0 -0 -0 -0 -0 -0 -0 -0 -0 -0 -0 -0 -0 -0 -0 -0 -0 nan nan nan nan nan -0 -0 -0 -0 -0 -0 -0 -0 -0 -0 -0 -0 -0 -0 -0 -0 -0 -0 -0 -0 -0 -0 -0 -0 -0 -0 -0 -0 -0 -0 -0 -0
-0 -0 -0 -0 -0 -0 -0 -0 -0 -0 -0 -0 -0 -0 -0 -0 -0 -0 -0 -0 -0 -0 -0 -0 -0 -0 -0 -0 -0 -0 nan nan -0 -0 -0 -0 -0 -0 -0 -0 -0 -0 -0 -0 -0 -0 -0 -0 -0 nan nan nan nan nan nan -0 -0 -0 -0 -0 -0 -0 -0 -0 -0 -0 -0 -0 -0 -0 -0 -0 -0 -0 -0 -0 -0 -0 -0 -0 -0 -0 -0 -0 -0 -0
-0 -0 -0 -0 -0 -0 -0 -0 -0 -0 -0 -0 -0 -0 -0 -0 -0 -0 -0 -0 -0 -0 -0 -0 -0 -0 -0 -0 -0 -0 nan nan nan nan -0 -0 -0 -0 -0 -0 -0 -0 nan -0 -0 -0 -0 nan nan nan nan nan nan nan nan nan nan nan -0 -0 -0 -0 -0 -0 -0 -0 -0 -0 -0 -0 -0 -0 -0 -0 -0 -0 -0 -0 -0 -0 -0 -0 -0 -1 -1 -1
-0 -0 -0 -0 -0 -0 -0 -0 -0 -0 -0 -0 -0 -0 -0 -0 -0 -0 -0 -0 -0 -0 -0 -0 -0 -0 -0 -0 -0 -0 nan nan nan nan nan -0 -0 -0 -0 -0 -0 -0 -0 -0 -0 -0 -0 nan nan nan -0 nan nan nan nan nan nan nan nan nan nan -0 -0 -0 -0 -0 -0 -0 -0 -0 -0 -0 -0 -0 -0 -0 -0 -0 -0 -0 -0 -0 -1 -1 -1 -1
-0 -0 -0 -0 -0 -0 -0 -0 -0 -0 -0 -0 -0 -0 -0 -0 -0 -0 -0 -0 -0 -0 -0 -0 -0 -0 -0 -0 -0 -0 -0 nan -0 -0 -0 -0 -0 -0 -0 -0 -0 -0 -0 -0 -0 nan -0 -0 -0 nan -0 nan nan nan nan nan nan nan nan nan nan nan nan -0 -0 -0 -0 -0 -0 -0 -0 -0 -0 -0 -0 -0 -0 -0 -0 -0 -0 -0 -0 -1 -1 -0
-0 -0 -0 -0 -0 -0 -0 -0 -0 -0 -0 -0 -0 -0 -0 -0 -0 -0 -0 -0 -0 -0 -0 -0 -0 -0 -0 -0 -0 -0 -0 nan -0 -0 -0 -0 -0 -0 -0 -0 -0 -0 -0 -0 -0 -0 -0 -0 -0 -0 -0 nan nan nan nan nan nan nan nan nan nan nan nan -0 -0 -0 -0 -0 -0 -0 -0 -0 -0 -0 -0 -0 -0 -0 -0 -0 -0 -0 -0 -1 -1 -0
-0 -0 -0 -0 -0 -0 -0 -0 -0 -0 -0 -0 -0 -0 -0 -0 -0 -0 -0 -0 -0 -0 -0 -0 -0 -0 -0 -0 -0 -0 nan nan -0 -0 -0 -0 -0 -0 -0 -0 -0 -0 -0 -0 -0 -0 -0 -0 -0 -0 -0 nan nan nan nan nan nan nan -0 nan nan nan nan nan nan -0 -0 -0 nan nan -0 -0 -0 -0 -0 -0 -0 -0 -0 -0 -0 -0 -0 -0 -0 -0
-0 -0 -0 -0 -0 -0 -0 -0 -0 -0 -0 -0 -0 -0 -0 -0 -0 -0 -0 -0 -0 -0 -0 -0 -0 -0 -0 nan -0 -0 nan nan -0 -0 -0 -0 -0 -0 -0 -0 -0 -0 -0 -0 -0 -0 -0 -0 -0 -0 -0 -0 nan nan nan nan nan nan nan nan nan nan nan nan nan nan nan nan nan nan nan nan nan nan -0 -0 -0 -0 -0 -0 -0 -0 -0 -0 -0 -0
-0 -0 -0 -0 -0 -0 -0 -0 -0 -0 -0 -0 -0 -0 -0 -0 -0 -0 -0 -0 -0 -0 -0 -0 -0 -0 -1 nan nan nan -0 nan -0 -0 -0 -0 -0 -0 -0 -0 -0 -0 -0 -0 -0 -0 -0 -0 -0 -0 -0 -0 nan nan nan nan nan nan nan nan nan nan nan nan nan nan nan nan nan nan nan nan nan nan -0 -0 -0 -0 -0 -0 -0 -0 -0 -0 -0 -0
-0 -0 -0 -0 -0 -0 -0 -0 -0 -0 -0 nan -0 -0 -0 -0 -0 -0 -0 -3 -3 -1 -0 -0 -0 -0 -0 -2 nan nan nan -0 -0 -0 -0 -1 -0 -0 nan -0 -0 -0 -0 -0 -0 -0 -0 -0 -0 -0 -0 -0 nan nan nan nan nan nan nan nan nan nan nan nan nan nan nan -0 -0 -0 -0 nan -1 -1 -0 -0 -0 -0 -0 -0 -0 -0 -0 -0 -0 -0
-0 -0 -0 -0 -0 -0 -0 -0 -0 -0 -0 -0 -0 -0 -0 -0 -0 -0 -0 -0 -0 -3 -0 -0 -0 -0 -0 -0 -8 -8 nan -3 -3 -3 -2 -2 nan nan -0 -0 -0 -0 -0 -0 -0 -0 -0 -0 -0 -0 -0 nan -0 -0 -0 -0 -0 -0 -0 -0 -0 -0 nan nan nan -0 -0 -0 -0 -0 -0 -0 nan nan -2 -0 -1 -1 -0 -0 -0 -0 -0 -0 -0 -0
-0 -0 -0 -0 -0 -0 -0 -0 -0 -0 -0 -0 -0 -0 -0 -0 -0 -0 -0 -0 -0 -0 -0 -0 -0 -0 -9 -11 -3 -3 -2 -5 -7 -7 -5 -3 nan nan nan -0 -0 -0 -0 -0 -0 -0 nan -0 -0 -0 -0 -0 -0 -0 -0 -0 -0 -0 -0 -0 -0 -0 nan nan nan -0 -0 nan -0 -0 nan nan nan nan nan -2 -2 -2 -1 -0 -0 -0 -0 -0 -0 -0
-0 -0 -0 -0 -0 -0 -0 -0 -0 -0 -0 -0 -0 -0 -0 -0 -0 -0 -0 -0 -0 -0 -0 -0 -0 -0 -0 -0 -0 -0 -2 -10 -3 -3 -4 -3 -1 -1 nan nan nan -0 -0 -0 -0 -0 nan -0 -0 -0 -0 nan -0 -0 -0 -0 -0 -0 -0 nan nan nan -0 nan nan nan nan nan nan nan nan nan -0 -0 -2 -2 -2 -2 -2 -2 -2 -1 -0 -1 -1 -0
-0 -0 -0 -0 -0 -0 -0 -0 -0 -0 -0 -0 -0 -0 -0 -0 -0 -0 -0 -0 -0 -0 -0 -0 -0 -0 -0 -1 -0 -0 -1 -10 -3 -3 nan nan nan nan -1 nan nan -0 -0 -0 -0 -0 nan nan nan -0 -0 nan -0 -0 -0 -0 -0 -0 -0 -0 -0 -0 -0 -0 -0 nan nan nan -2 -2 -0 -0 -0 -0 -3 -2 -3 -3 -3 -3 -3 -2 -1 -3 -3 nan
-0 -0 -0 -0 -0 -0 -0 -0 -0 -0 -0 -0 -0 -0 -0 -0 -0 -0 -0 -0 -0 -0 -0 -0 -0 -0 -0 -0 -0 -0 nan nan nan nan nan nan nan nan -2 nan nan nan nan -0 -0 -0 -0 -0 -0 -0 -0 nan nan nan -0 -0 -0 -0 -0 -0 -0 -0 -0 -0 -0 nan nan nan nan nan -0 -0 nan nan -4 -3 -5 -5 -3 -2 -2 -0 -0 -2 -2 -2
-0 -0 -0 -0 -0 -0 -0 -0 -0 -0 -0 nan -0 -0 -0 nan -0 -0 -0 -0 -0 -0 -0 -0 -0 -0 -0 -0 nan nan nan nan -8 -8 -7 nan nan nan nan -0 -0 -1 nan -0 -0 -0 -0 -0 -0 -0 -0 -0 nan nan -0 -0 -0 -0 -0 -0 -0 -0 -0 -0 -0 nan nan nan nan nan -0 -0 -3 -3 -3 -4 -3 -3 -2 -2 -2 -0 -0 -2 -2 -1
-0 -0 -0 -0 -0 -0 -0 -0 -0 -0 -0 nan -0 -0 nan nan -0 -0 -0 -0 -0 -0 -0 -0 -0 -0 -0 -0 nan nan nan nan nan nan nan nan nan nan -3 -1 -1 -0 -0 -0 -0 -0 -0 -0 -0 -0 -0 -0 -0 -0 -0 -0 -0 -0 -0 -0 -0 -0 nan -0 -0 nan nan nan nan nan -2 -4 -4 -4 -4 -5 -6 -6 -3 -4 -4 -5 -2 -2 -2 -1
-0 -0 -0 -0 -0 -0 -0 -0 -0 -0 -0 -0 -0 -0 -0 -0 -0 -0 -0 -0 -0 -0 -0 -0 -0 -0 -0 -0 -0 -0 nan nan nan nan nan -4 -1 -1 -4 -2 -2 -0 -0 -0 -0 nan -0 -0 -0 -0 -0 -0 nan nan -0 -0 -0 -0 -0 -0 -0 -0 -0 -0 -0 nan nan nan nan nan -6 -8 -6 -6 nan -5 -8 -8 -8 -8 -8 -5 -3 -2 -2 -1
-0 -0 -0 -0 -0 -0 -0 -0 -0 -0 -0 -0 -0 -0 -0 -0 -0 -0 -0 -0 -0 -0 -0 -0 -0 nan nan -0 -0 -0 -0 nan nan nan nan nan -2 -2 -0 -1 -1 -0 -0 -0 -0 -0 nan nan nan -0 -0 -0 -0 -0 -0 -0 -0 -0 -0 -0 -0 -0 -0 -0 -0 -0 -0 -0 -2 -2 -7 -7 -3 -3 nan nan -6 -6 -10 -11 -11 -6 -3 -2 -2 -1
-0 -0 -0 -0 -0 -0 -0 -0 -0 -0 -0 -0 -0 -0 -0 -0 -0 -0 -0 -0 -0 -0 -0 -0 -0 nan nan nan nan nan nan -0 -0 -0 nan nan -0 -0 -0 -0 -0 -0 -1 -0 -0 -0 -0 nan nan -0 nan -0 -0 -0 -0 -0 -0 -0 -0 -0 -0 -0 -0 -0 -0 -0 -0 -0 -3 -3 -6 -4 -2 -2 -2 nan -4 -4 -6 -7 -7 -4 -2 -1 -1 -1
-0 -0 -0 -0 -0 -0 -0 -0 -0 -0 -0 -0 -0 -0 -0 -0 -0 -0 -0 -0 -0 -0 -0 -0 -0 nan -0 -0 -0 -0 nan -0 -0 -0 -0 nan -0 -0 -0 -0 -0 -0 -0 -0 -0 -0 -0 -2 -2 -2 -0 -0 -0 -0 nan -0 -0 -0 -0 -0 -0 -0 -0 -0 -0 -0 -0 -0 -5 -5 -4 -2 nan nan -1 -1 -0 -0 -2 -10 -10 -7 -4 -2 -2 -1
-0 -0 -0 -0 -0 -0 -0 -0 -0 -0 -0 -0 -0 -0 -0 -0 -0 -0 -0 -0 -0 -0 -0 -0 -0 -0 nan nan nan nan nan -0 -0 -0 -0 nan nan nan -0 -0 -0 -0 -0 -0 -0 -0 -0 -3 -3 -0 -0 -0 -0 -0 -0 nan nan nan nan nan nan -0 -0 -1 -1 -0 -0 -5 -10 -10 nan nan -1 -1 nan -1 -0 -0 -1 -14 -14 nan -10 -7 -7 -5
-0 -0 -0 -0 -0 -0 -0 -0 -0 -0 -0 -0 -0 -0 -0 -0 -0 -0 -0 -0 -0 nan nan -0 -0 nan nan -0 nan nan nan nan -0 -0 -0 -0 -0 -0 -0 -0 -0 -0 -0 -0 -0 -0 -0 -2 -2 -0 -0 -0 nan nan -0 -0 -0 -0 -0 -1 -1 -1 -0 -0 -0 -1 -2 -4 -8 -8 -5 -2 -2 -2 -1 -0 -0 -0 nan nan nan nan nan -13 -13 -6
-0 -0 -0 -0 -0 -0 -0 -0 -0 -0 -0 -0 -0 -0 -0 -0 -0 -0 -0 -0 -0 -0 -0 -0 -0 nan nan nan nan nan nan nan -0 -0 -0 -0 -0 -0 -0 -0 -0 -0 -0 -0 -0 -0 -0 -0 -0 -0 -0 -0 -4 -4 -0 -0 -0 -0 -2 -2 -2 -1 -1 -1 -1 -0 -0 -0 -4 -4 -4 -2 -1 -1 -1 -1 -0 -0 -0 nan nan -5 nan nan nan -6
Wind_Speed
8 9 9 12 12 12 11 13 14 14 13 11 11 11 11 12 12 13 15 15 15 15 14 14 14 15 17 20 23 24 26 26 27 28 28 28 28 29 29 29 29 29 30 30 30 31 31 31 31 32 32 32 32 32 32 32 32 32 32 32 32 32 32 32 32 32 32 32 32 32 32 32 33 33 33 33 34 34 34 35 35 35 34 34 34 34
9 9 9 12 13 13 11 13 14 14 14 13 12 12 12 13 12 12 12 13 14 14 13 13 14 16 17 19 21 24 25 26 27 27 28 28 28 28 29 29 29 30 30 30 30 31 31 31 31 32 32 32 32 32 32 32 32 32 32 32 32 32 32 32 33 32 32 32 32 32 32 32 32 32 32 33 33 33 34 34 34 34 34 34 34 34
9 9 9 10 12 12 11 12 13 13 14 14 14 14 15 15 13 11 10 11 11 12 12 13 14 15 17 18 20 23 24 26 26 27 27 27 28 28 29 29 30 30 30 31 31 31 31 31 31 32 32 32 32 32 32 32 32 32 32 32 33 33 33 33 33 33 33 33 32 32 32 32 32 32 32 33 33 33 33 33 33 33 33 33 33 33
9 10 9 9 10 11 11 12 12 12 12 13 14 15 16 14 12 10 10 11 11 12 12 13 14 15 15 15 17 20 23 25 26 26 27 27 28 29 29 30 30 30 31 31 31 31 31 31 31 31 32 32 32 32 32 32 32 32 33 33 33 33 33 33 33 33 33 33 33 33 32 32 32 32 32 33 33 33 33 32 32 31 31 32 32 33
9 9 9 9 9 10 11 12 12 12 12 12 13 13 13 11 10 10 10 11 12 12 12 13 14 14 13 13 15 18 22 24 26 27 27 28 28 29 29 30 30 30 31 31 31 31 31 31 31 31 31 32 32 32 32 32 33 33 33 33 33 33 33 33 33 33 33 33 33 33 33 32 32 32 32 33 33 33 33 32 31 31 30 31 31 31
9 9 9 9 9 9 9 10 10 11 11 10 10 11 10 10 10 10 10 11 11 11 11 11 12 13 13 13 15 19 22 24 26 27 27 28 28 29 29 29 30 30 30 30 30 31 31 31 31 31 32 32 32 32 32 33 33 33 33 33 33 33 33 33 33 33 33 33 33 33 33 33 32 32 32 33 33 34 34 33 33 32 31 31 31 31
9 9 9 9 9 9 8 9 9 10 10 9 8 8 9 10 10 11 12 11 11 10 10 11 11 12 13 14 16 18 20 22 24 25 26 27 27 28 28 29 29 30 30 30 30 30 30 31 31 31 31 32 32 32 33 33 33 33 33 33 33 33 33 33 33 33 33 33 33 33 33 33 33 32 32 33 33 33 34 34 34 34 33 33 33 33
10 10 9 9 9 9 8 8 8 9 9 9 8 8 9 9 10 10 12 12 11 11 10 10 10 11 11 13 14 16 16 17 18 19 21 22 24 25 26 27 28 29 29 30 30 30 30 31 31 31 31 32 32 32 33 33 33 33 33 33 33 33 33 33 33 33 33 33 33 33 33 33 32 32 32 32 32 33 33 34 34 34 34 34 34 34
12 11 10 10 10 10 9 8 7 7 8 9 9 9 10 11 10 10 10 11 10 10 10 10 10 11 11 12 13 14 15 15 15 16 17 17 18 20 22 24 26 27 28 29 29 29 30 30 30 31 31 31 32 32 32 32 32 32 32 33 33 33 33 33 33 33 33 33 33 33 33 32 32 32 32 32 32 32 32 33 33 34 34 34 34 35
11 12 11 10 9 8 9 8 8 7 8 9 9 10 10 11 11 11 10 10 9 9 9 10 11 11 11 11 12 13 14 16 18 19 20 20 20 22 22 22 23 24 26 27 28 29 29 29 30 30 30 31 31 31 31 31 31 32 32 32 32 32 32 33 33 33 33 33 32 32 32 32 32 32 32 31 31 32 32 32 33 33 33 33 34 34
11 11 10 9 7 6 6 7 7 8 9 10 10 10 9 10 11 11 11 11 10 9 9 10 10 11 11 11 11 12 13 14 15 17 19 20 22 23 23 22 22 23 25 26 26 27 28 28 29 29 30 30 30 30 30 30 30 30 31 31 31 31 32 32 32 32 32 32 32 32 32 32 32 31 31 31 31 31 32 32 32 32 32 33 33 33
9 8 7 6 6 6 6 7 7 8 9 10 10 10 9 9 9 10 11 11 11 11 11 10 10 10 11 11 11 11 11 12 13 13 13 14 15 16 16 17 18 19 20 21 22 23 25 26 27 28 28 28 29 29 29 29 29 29 30 30 30 30 31 31 31 31 31 32 32 32 32 32 32 32 32 32 32 32 32 32 32 32 32 32 32 33
8 6 5 5 6 7 7 8 8 8 9 9 10 10 10 9 8 9 10 11 11 11 11 11 10 10 10 10 10 10 11 12 12 12 11 11 11 11 11 12 12 13 14 14 15 17 20 23 24 25 26 26 27 27 28 28 28 28 29 29 29 30 30 30 31 31 31 31 32 32 32 32 32 32 32 32 32 32 32 32 32 32 32 32 32 32
7 6 5 7 7 8 9 9 10 10 9 9 9 10 9 9 9 9 9 10 10 11 11 11 11 11 10 10 10 10 10 11 11 11 11 11 10 10 10 11 11 11 12 12 13 14 17 18 18 19 22 23 25 25 25 26 27 27 28 29 29 29 30 30 31 31 32 32 32 32 32 32 32 32 32 32 32 32 32 32 32 32 32 32 32 32
7 7 8 9 9 9 9 10 10 10 10 9 9 9 9 9 9 9 9 10 10 10 10 11 11 11 9 8 8 9 10 10 11 11 12 11 10 10 10 11 12 12 12 12 12 14 16 15 15 15 17 20 21 22 23 24 26 27 28 29 29 30 31 31 31 32 32 32 32 33 33 33 33 33 33 33 33 33 32 32 32 32 32 32 32 32
7 8 9 10 10 10 9 9 10 10 10 9 9 9 9 9 9 9 9 10 10 10 9 10 11 10 8 8 8 9 10 10 10 11 12 11 10 10 10 11 12 12 12 12 12 13 13 13 14 14 16 19 22 24 26 26 27 28 29 30 30 31 31 32 32 32 33 33 33 33 33 33 33 33 33 33 33 33 33 33 32 32 32 32 32 32
8 9 10 10 10 10 10 10 10 10 10 9 9 9 9 9 9 9 9 9 9 8 8 9 9 9 8 7 7 8 9 10 10 10 11 12 11 10 10 11 12 13 12 12 12 12 12 12 13 13 14 18 22 25 27 27 28 29 30 31 31 31 32 32 32 33 33 33 33 33 33 33 33 33 33 33 33 33 33 33 33 33 33 33 33 33
9 9 10 10 10 10 10 9 9 9 9 9 9 8 8 9 9 9 9 9 9 9 8 8 8 8 8 8 8 7 9 10 10 11 11 12 11 11 10 11 12 13 13 13 12 12 12 12 13 13 15 21 24 27 28 29 29 30 30 31 31 31 32 32 32 32 33 33 33 33 33 33 33 33 33 33 33 33 33 33 33 33 33 33 33 33
9 9 10 10 10 10 9 9 9 9 9 8 8 9 9 9 9 9 9 9 9 9 9 9 8 9 9 10 10 10 10 10 10 11 12 12 12 11 10 11 12 13 13 12 12 12 12 12 14 17 21 24 26 28 28 29 29 30 30 31 31 31 32 32 32 32 33 33 33 33 33 33 33 33 33 33 33 33 33 33 33 33 33 33 33 33
10 10 10 10 10 10 10 9 9 9 9 9 9 9 10 10 10 9 9 9 8 8 8 9 10 10 10 11 11 11 11 10 10 11 11 12 12 11 10 11 12 13 12 12 11 11 12 12 14 17 21 23 25 27 28 29 29 30 30 31 31 32 32 32 33 33 33 33 33 33 33 33 33 33 33 33 33 33 33 33 33 33 33 33 33 33
11 11 10 10 9 9 9 9 9 10 11 11 11 10 10 10 10 9 9 9 9 9 9 9 10 10 9 11 11 12 11 11 10 10 10 10 10 10 9 10 11 12 13 12 11 11 12 12 12 13 17 21 25 27 28 29 30 31 31 32 32 32 32 32 33 33 33 33 33 33 33 33 33 33 33 33 33 33 33 33 33 33 33 33 33 33
10 11 11 12 11 10 9 10 11 13 13 12 11 10 9 9 9 10 10 10 10 10 10 10 10 10 11 12 12 12 12 11 10 9 8 10 11 10 9 9 10 12 12 12 11 11 12 12 12 13 17 22 26 28 29 30 30 31 31 31 32 32 32 32 32 32 32 32 32 33 33 33 33 33 33 33 33 33 33 33 33 33 33 33 33 33
11 11 12 12 11 11 10 11 11 12 12 11 10 9 8 8 9 10 10 10 10 11 11 10 11 11 11 12 12 12 11 10 9 9 7 10 11 11 9 9 10 11 12 11 11 11 12 12 12 14 18 23 27 28 29 30 30 30 31 31 31 31 31 31 31 31 31 32 32 32 32 32 32 32 33 33 33 33 33 33 33 33 33 33 34 34
12 12 12 11 11 10 10 11 11 10 10 9 9 9 9 10 10 11 11 11 11 11 10 10 11 11 11 12 12 11 10 9 9 8 7 9 10 10 9 9 10 11 12 11 11 11 12 12 12 13 15 21 25 27 28 29 29 29 29 29 29 29 29 30 30 30 31 31 32 32 32 32 32 32 32 32 33 33 33 33 33 33 33 33 33 34
12 12 11 11 12 13 14 13 13 12 12 11 11 11 11 12 12 12 11 11 10 10 10 10 11 11 10 11 10 10 9 9 8 8 7 7 9 10 9 9 10 11 12 11 11 11 12 13 13 13 13 17 21 25 27 28 28 28 28 28 28 28 28 29 29 30 31 31 31 32 32 32 32 32 32 32 32 32 32 33 33 33 33 33 33 33
16 16 16 18 20 23 24 24 23 22 21 18 15 12 11 11 11 11 11 10 9 9 10 10 11 10 10 9 9 9 8 8 8 7 7 7 8 10 9 8 9 10 12 11 11 11 12 13 13 13 13 15 18 22 24 25 26 26 26 27 27 27 28 28 29 30 31 31 31 31 32 32 32 32 32 32 32 32 32 32 32 32 33 33 33 32
23 24 25 26 26 26 26 25 26 26 27 24 20 17 13 11 10 10 10 9 9 9 9 10 10 10 10 9 9 9 9 8 7 7 7 8 9 9 9 8 9 10 12 11 11 11 13 13 14 13 13 13 14 17 21 22 24 25 26 26 27 27 28 28 29 30 30 30 30 31 31 31 31 31 32 32 32 32 32 32 32 32 32 31 29 27
23 23 22 22 23 23 23 24 24 24 24 24 23 21 16 11 10 10 10 9 9 9 9 10 10 10 9 9 9 10 10 9 8 7 7 7 7 7 8 8 9 10 11 11 11 11 13 13 13 13 13 12 12 13 16 20 22 23 25 25 26 27 27 28 28 29 29 29 29 29 30 30 30 31 31 31 31 31 32 32 32 31 30 26 21 18
18 19 19 19 20 21 21 21 21 21 22 22 21 19 15 10 9 9 10 9 9 9 10 10 10 9 9 10 10 10 10 9 8 7 7 6 7 7 8 8 9 9 10 10 10 10 10 10 10 11 11 12 12 12 13 16 18 19 21 23 24 25 26 26 27 27 28 28 28 28 29 29 30 30 30 30 31 31 31 32 31 29 23 19 16 15
13 14 15 16 17 17 17 16 16 17 18 19 19 17 14 10 9 9 9 9 9 9 10 10 10 10 9 9 9 9 9 8 7 6 6 6 6 7 8 9 9 9 8 8 9 9 9 8 8 9 10 12 12 12 11 12 13 14 15 18 19 20 22 24 25 25 26 27 27 27 28 28 29 29 29 30 30 30 31 32 30 25 17 14 14 14
12 12 12 13 13 13 12 12 12 13 14 15 15 14 12 9 9 8 8 8 8 9 10 10 10 10 9 8 8 8 7 7 7 7 7 6 6 7 8 9 9 9 7 7 7 8 9 8 8 8 10 11 12 12 12 12 12 12 12 13 14 15 19 21 22 23 24 24 25 26 27 27 27 28 28 29 29 29 30 31 29 23 15 13 13 14
11 11 10 10 10 10 10 9 9 9 10 10 10 10 10 9 9 8 8 8 8 8 9 10 10 10 9 8 8 8 7 8 9 9 8 6 6 7 8 8 9 9 8 7 7 8 9 8 8 9 10 11 11 11 12 12 12 11 11 12 12 13 16 18 19 19 19 21 22 24 25 26 26 27 27 28 28 29 29 30 28 23 16 14 13 13
10 10 9 9 9 9 9 8 8 8 8 8 8 8 9 9 9 9 8 8 8 8 8 9 10 10 10 10 10 10 9 10 10 11 10 7 6 6 7 8 9 9 9 8 8 8 8 9 9 10 10 10 10 11 11 12 12 11 11 11 11 12 14 14 15 15 15 17 18 19 21 23 24 25 26 26 27 27 28 29 28 25 19 15 13 13
10 10 10 10 9 9 9 9 9 9 8 8 8 8 8 8 8 9 9 8 8 8 8 9 9 9 10 10 10 11 11 11 11 11 10 8 6 6 8 9 10 10 9 9 8 8 8 10 10 10 10 10 10 10 11 11 12 11 11 11 11 11 12 12 12 12 13 14 14 14 16 17 18 20 22 23 24 25 26 27 28 27 25 19 15 13
10 10 10 9 9 9 9 9 9 9 9 8 8 9 8 8 8 8 8 8 8 8 8 8 9 9 10 10 10 11 12 12 12 12 11 9 7 7 8 9 9 9 9 9 8 8 8 10 11 11 10 11 11 10 10 10 11 11 10 11 11 11 11 11 11 12 12 12 12 12 12 12 13 14 16 18 21 22 25 26 27 28 28 26 22 17
9 9 9 9 9 9 9 9 9 9 9 8 8 8 8 9 9 9 8 8 9 9 10 9 10 10 10 10 11 12 13 12 13 13 12 10 8 7 7 8 9 9 9 10 9 9 9 10 11 12 12 12 11 10 10 10 10 10 10 11 11 11 12 12 11 11 12 12 12 12 11 11 11 12 14 18 21 23 25 26 28 28 29 29 28 25
9 9 9 9 8 9 9 9 9 8 8 8 8 8 9 9 9 9 9 9 9 10 10 11 11 12 12 12 12 12 13 13 13 14 14 12 10 9 8 8 9 10 10 10 10 10 10 10 11 12 12 11 10 10 10 10 10 11 11 11 11 11 12 12 12 11 12 12 12 12 12 12 12 13 14 18 20 22 23 25 26 26 28 29 29 29
9 9 9 8 8 8 8 8 8 8 8 8 9 9 10 10 11 11 11 11 11 11 11 11 11 13 15 16 15 15 15 15 16 17 17 14 11 10 9 10 10 10 10 10 10 10 10 11 11 11 11 11 11 12 12 11 11 11 11 11 11 11 12 12 12 11 11 12 13 14 14 13 13 13 13 14 14 14 15 16 17 20 23 23 25 27
9 9 9 9 8 8 8 8 8 9 9 9 9 10 10 11 12 12 11 11 11 12 12 12 12 12 14 15 16 17 17 17 17 17 16 14 12 11 10 10 10 11 11 10 10 10 10 10 11 11 11 11 12 12 12 11 12 12 12 12 11 11 11 11 11 11 12 12 13 14 13 12 12 12 12 12 11 11 12 12 13 14 15 15 16 20
9 9 9 9 8 8 8 9 9 9 9 10 10 11 11 11 11 11 11 10 11 11 12 13 12 12 13 13 14 15 15 14 14 14 14 13 12 10 10 10 10 11 11 10 10 10 10 10 11 12 12 11 11 12 12 12 12 12 13 11 10 10 11 11 11 11 11 11 12 12 12 12 12 12 12 12 11 11 11 11 12 12 12 11 11 11
9 9 9 8 8 9 9 9 9 9 9 10 10 9 9 9 9 9 9 10 10 10 10 11 11 11 12 12 12 13 14 13 14 14 12 12 12 12 10 10 10 10 10 10 10 10 10 11 12 12 12 12 12 13 13 13 14 15 15 13 12 12 12 13 12 12 11 11 11 12 12 13 13 13 13 12 12 11 11 11 12 12 12 11 10 9
10 9 9 8 8 8 9 9 10 10 10 10 9 9 9 8 9 9 9 9 9 9 9 9 10 11 12 12 12 12 11 11 12 12 12 13 13 12 11 11 10 10 10 10 11 11 11 11 12 12 12 12 12 12 12 13 14 14 14 13 13 13 13 13 11 10 10 11 11 12 13 13 13 13 13 12 12 11 11 12 13 14 14 11 10 10
9 9 9 9 9 9 10 10 10 9 9 8 8 8 8 8 8 9 9 10 10 10 10 9 9 10 11 12 12 11 10 9 10 10 11 11 12 12 12 12 11 11 10 10 10 11 11 12 12 12 12 12 12 12 13 13 13 13 13 13 13 12 9 9 9 10 10 11 12 12 12 12 12 12 12 12 11 11 11 13 14 15 14 12 10 10
9 9 9 9 9 9 9 9 9 8 8 9 9 9 9 9 9 10 9 9 10 10 10 9 9 10 11 12 12 12 11 10 10 10 10 11 11 12 12 13 13 12 11 10 10 10 11 11 12 12 12 11 11 12 12 12 13 13 13 13 13 12 10 10 11 12 12 12 12 12 12 12 12 12 12 12 11 11 11 11 10 11 11 11 10 10
9 9 9 9 9 9 9 9 9 9 9 9 9 9 9 9 9 9 9 9 10 10 9 9 9 9 9 11 11 11 11 10 9 9 9 10 12 13 12 11 11 11 11 10 10 10 9 10 11 11 11 10 11 12 12 13 13 13 13 13 13 12 12 12 12 12 12 12 12 12 13 12 12 13 13 12 12 11 10 10 10 10 10 9 9 10
8 9 9 9 9 9 10 9 9 9 9 9 9 9 9 9 9 9 9 9 10 10 10 9 8 8 9 10 10 10 10 10 10 9 8 9 9 10 10 10 10 9 9 9 10 10 10 11 11 11 11 11 11 12 12 12 12 12 12 12 12 11 12 12 12 12 12 12 13 13 14 14 13 13 13 13 12 12 11 10 10 10 10 9 10 10
9 9 9 9 9 9 9 9 9 9 9 10 10 9 9 9 9 9 9 9 9 9 9 9 9 9 10 10 10 10 10 11 11 11 10 10 10 9 9 9 9 10 9 10 10 11 11 12 12 12 11 11 11 12 12 12 12 12 12 12 11 11 11 11 11 11 12 12 12 13 15 14 13 13 13 13 13 12 11 10 10 9 9 9 10 10
9 10 10 9 9 10 9 9 9 9 10 10 10 10 9 9 10 10 9 9 9 9 9 9 9 10 10 11 10 10 11 11 11 11 11 10 10 9 9 9 9 9 10 10 11 12 13 13 13 13 12 12 12 12 12 12 12 11 11 11 11 11 12 12 11 11 11 12 13 13 13 12 12 13 14 13 13 12 12 11 10 9 8 9 9 10
9 9 9 9 10 10 10 9 9 10 10 10 11 10 10 10 11 11 9 9 9 8 8 9 10 10 10 11 11 11 11 11 11 11 10 10 9 9 9 9 9 9 9 10 10 11 11 12 13 13 13 12 12 12 12 12 11 11 10 10 10 11 11 12 12 12 11 12 13 13 12 11 11 11 12 13 13 13 13 12 10 9 8 8 8 9
9 9 9 9 10 10 10 10 10 10 10 11 11 11 11 10 10 10 9 9 8 8 8 9 10 10 11 11 11 11 11 11 11 10 10 9 9 9 9 9 9 9 9 9 9 9 9 9 10 11 12 12 12 12 11 11 11 11 10 10 10 10 11 11 12 12 12 12 12 13 13 12 11 11 10 11 13 14 14 13 12 11 10 9 9 10
9 9 9 9 9 10 10 10 10 10 10 11 11 11 11 10 10 10 9 9 9 9 9 9 9 10 10 11 11 11 11 11 11 11 10 9 9 9 9 9 9 9 9 9 9 8 8 8 8 8 8 10 10 10 9 10 10 10 10 10 9 9 10 11 11 12 12 12 12 11 12 11 11 10 10 10 12 13 13 13 13 13 12 11 11 11
Wind_Direction
301 304 306 306 303 300 298 299 299 297 296 295 294 294 295 294 294 294 295 295 295 295 294 292 290 289 288 288 288 288 289 290 291 292 292 291 291 291 290 290 290 290 290 290 289 289 289 289 289 288 288 288 287 287 286 286 285 285 284 284 283 283 282 282 281 281 281 280 280 279 279 278 278 277 277 276 275 274 273 272 271 270 270 270 270 270
302 303 303 303 302 299 296 298 297 296 296 296 296 296 296 296 296 295 295 294 294 294 294 292 290 289 288 288 289 290 291 291 292 292 291 291 291 290 290 290 290 290 290 290 290 289 289 289 288 288 287 286 286 285 285 284 284 283 283 282 282 282 281 281 281 280 280 280 279 279 278 278 278 277 277 276 275 274 273 272 271 271 271 271 271 271
304 301 300 300 299 298 297 298 297 295 295 296 296 296 296 296 296 296 296 296 295 294 292 291 290 289 289 289 290 291 292 292 292 291 291 291 290 290 290 290 290 290 290 290 289 289 288 288 287 286 286 285 284 284 283 283 283 282 282 281 281 281 280 280 280 280 280 280 279 279 279 278 278 277 277 276 275 274 272 271 270 270 270 270 270 269
301 298 299 299 297 295 295 297 297 296 295 294 295 295 295 295 295 296 297 297 295 292 289 288 288 289 289 290 291 292 292 292 292 292 291 291 291 291 290 290 290 290 290 289 289 288 287 287 286 285 285 284 284 283 283 282 282 282 281 281 280 280 280 279 279 279 279 279 279 279 279 278 278 277 277 276 276 275 273 272 271 270 270 270 269 269
295 295 298 298 295 293 293 294 295 295 294 293 293 294 295 295 296 296 295 293 291 289 288 287 288 290 291 292 292 292 293 293 292 292 292 292 291 291 291 290 290 289 289 288 287 287 286 286 285 285 284 284 283 283 283 282 282 281 281 280 280 279 279 279 279 279 279 279 279 279 279 279 278 278 277 277 276 276 275 274 273 271 270 269 269 268
292 293 296 295 294 293 294 294 294 294 292 291 292 294 296 297 296 294 292 290 289 288 289 290 291 292 292 292 293 293 294 294 294 293 293 292 292 291 291 290 289 288 288 287 287 287 286 286 285 285 285 284 284 284 283 283 282 282 281 281 280 280 280 280 280 280 280 281 281 280 280 280 279 278 278 277 277 277 277 276 275 273 271 270 268 267
292 291 291 291 290 290 290 290 291 293 293 294 295 296 296 294 293 291 290 290 291 291 292 292 292 292 292 293 294 295 296 295 295 294 293 292 291 290 290 289 288 288 287 287 287 287 287 286 286 285 285 285 284 284 284 283 283 282 282 282 282 282 282 282 282 282 282 282 282 281 281 280 279 279 278 277 277 277 276 276 275 274 273 272 270 269
292 290 287 287 287 286 284 285 288 292 296 299 301 300 296 291 290 289 291 292 293 294 294 294 294 294 294 297 298 298 298 296 295 294 293 292 290 289 289 288 288 288 288 287 287 287 287 286 286 286 286 285 285 285 284 284 284 284 284 284 284 284 283 283 283 283 283 282 282 281 280 280 279 278 277 276 276 275 275 274 274 273 273 272 271 270
288 289 287 284 284 285 287 287 290 294 298 299 299 298 298 296 294 293 293 294 295 296 297 298 298 298 298 299 299 299 297 294 293 292 291 290 289 288 288 288 288 288 288 288 288 287 287 287 287 287 287 286 286 286 286 285 285 285 285 285 284 284 284 284 283 283 282 282 281 281 280 279 278 278 277 276 275 274 273 273 272 271 271 270 270 269
281 282 282 280 280 283 289 294 297 299 296 293 293 294 297 298 299 299 298 298 299 300 300 300 301 300 300 299 298 296 295 292 290 288 288 287 288 288 288 288 288 288 288 288 288 288 288 288 288 288 288 287 287 286 286 286 285 285 285 284 284 283 283 283 282 282 282 281 281 280 280 279 278 278 277 276 275 274 273 272 271 270 269 268 268 267
278 277 278 280 283 285 287 291 295 297 296 293 292 292 293 296 299 301 302 302 303 303 302 301 300 300 300 299 297 295 293 291 289 288 287 287 288 288 288 288 288 288 289 289 289 289 289 289 289 288 288 287 287 286 286 285 285 284 284 283 283 283 282 282 282 282 281 281 281 280 280 279 279 278 277 276 274 273 272 271 270 269 268 267 266 266
278 279 280 286 290 292 290 290 293 296 299 299 298 296 294 295 298 301 303 304 305 305 303 300 298 296 296 297 296 295 292 290 289 289 289 289 289 290 290 290 290 290 290 290 290 290 289 289 289 288 288 287 286 286 285 285 284 284 283 283 282 282 282 282 281 281 281 281 280 280 279 278 278 277 276 275 274 272 271 270 269 268 267 266 265 265
278 280 284 289 293 296 298 300 301 302 301 300 299 298 298 300 302 302 302 302 302 303 302 299 296 293 292 292 292 291 290 289 289 289 290 291 292 293 294 292 292 291 292 291 290 290 290 289 289 288 287 286 286 285 284 284 283 283 283 282 282 282 281 281 281 281 280 280 279 279 278 277 276 276 275 274 273 272 271 270 269 268 266 266 265 264
286 292 295 297 299 301 303 303 302 300 299 297 296 296 299 302 304 303 301 298 298 298 298 295 293 291 290 289 288 288 289 289 290 290 290 291 292 295 295 293 292 291 292 291 290 289 290 290 289 288 286 285 284 284 283 283 283 283 283 282 282 282 281 281 281 281 280 279 279 279 278 277 277 276 275 275 274 273 272 271 270 269 268 267 266 265
301 305 303 302 302 302 301 299 297 295 293 294 295 297 299 301 302 301 299 297 297 297 295 292 290 289 287 288 290 291 291 290 290 290 290 290 292 294 296 293 291 290 291 290 289 289 289 288 286 284 284 283 283 284 284 285 284 284 283 283 282 282 282 282 282 282 281 281 280 280 279 279 278 277 277 276 275 275 274 273 271 270 269 268 267 266
306 305 302 301 299 297 295 294 292 292 293 295 296 298 299 300 301 300 298 296 295 295 294 293 293 292 289 289 292 293 293 291 290 290 292 292 294 296 297 294 292 290 289 288 287 287 288 285 284 283 284 285 285 285 286 285 284 284 284 284 284 284 284 283 283 283 282 282 281 281 280 279 279 278 277 277 276 275 274 273 272 271 269 268 267 266
303 300 297 295 294 293 292 290 291 292 295 296 297 298 299 299 299 297 294 292 293 293 292 295 297 299 298 297 294 293 293 292 291 292 293 293 295 296 297 294 291 289 288 287 286 287 287 286 285 285 285 285 285 285 286 286 285 285 285 285 285 285 284 284 283 283 282 282 281 281 280 279 279 278 277 276 275 274 273 272 271 270 269 268 266 265
297 294 292 291 290 290 292 292 292 293 295 296 296 297 296 295 293 291 289 289 289 290 292 294 296 297 299 299 298 298 300 298 296 295 294 293 293 294 295 291 288 286 287 286 286 286 286 285 284 284 284 285 286 286 286 286 286 286 286 285 285 284 284 284 283 283 282 282 282 281 280 280 279 278 277 276 275 274 273 272 271 270 269 267 266 265
290 289 288 288 289 291 293 293 294 295 296 297 298 298 295 292 288 286 284 285 286 289 293 295 294 292 292 292 294 298 303 301 299 296 294 292 292 292 293 289 286 284 284 285 286 286 286 286 285 285 285 285 286 286 286 286 286 286 286 285 285 285 284 284 284 283 283 283 282 281 281 280 279 278 278 277 276 275 274 273 272 271 270 268 267 265
287 288 288 290 292 292 291 290 291 293 294 296 297 295 291 288 285 282 281 285 288 291 293 292 291 289 288 289 292 296 302 303 299 294 290 289 289 291 292 289 287 285 285 285 287 288 288 287 286 285 285 285 286 286 286 286 287 287 287 286 286 286 285 285 284 284 283 283 282 282 281 280 280 279 278 277 276 275 275 274 273 272 271 270 268 267
287 287 287 289 290 290 288 288 288 290 292 294 293 290 285 283 284 285 289 293 295 294 292 288 286 287 289 289 291 294 300 300 295 290 287 287 287 288 291 290 288 287 286 287 288 288 287 286 286 286 286 287 287 287 288 288 288 288 287 287 286 286 286 285 285 284 284 283 283 282 282 281 280 280 279 278 277 276 275 274 273 272 271 270 269 268
286 285 285 285 284 283 283 285 287 289 290 289 287 284 282 287 292 296 300 300 297 294 290 287 286 287 288 287 288 290 293 290 286 284 287 286 286 286 290 290 288 287 287 288 289 289 288 288 288 288 288 288 288 288 288 288 287 287 287 286 286 286 286 286 286 285 285 285 284 284 283 282 281 280 279 278 277 275 274 273 272 271 270 269 268 267
283 283 284 283 282 282 284 286 287 287 287 283 280 280 286 295 299 301 301 298 295 291 289 287 286 285 283 282 282 283 284 281 280 280 282 284 286 288 293 293 290 288 286 289 292 293 292 290 289 289 289 288 288 288 288 287 287 287 287 287 287 287 287 287 287 287 286 286 285 284 284 283 282 280 279 278 277 276 274 273 272 271 269 268 267 266
282 282 283 283 283 284 285 285 285 284 284 283 285 288 294 297 297 296 294 292 290 288 286 286 284 282 279 279 279 280 281 282 282 282 281 282 286 290 294 294 291 288 287 291 294 296 295 292 290 289 288 288 288 288 288 288 287 287 288 288 288 288 288 288 287 287 287 286 286 285 285 284 283 282 281 280 278 277 276 275 273 272 270 269 268 266
281 281 282 282 282 282 283 283 284 287 290 293 295 298 299 297 295 292 289 287 285 284 284 283 283 282 282 283 284 284 285 287 286 285 282 283 284 287 291 293 292 291 291 294 296 296 294 292 290 289 289 288 288 288 288 288 288 288 288 288 288 288 287 287 287 287 287 287 286 286 286 285 284 283 282 281 280 279 278 276 275 274 272 271 269 268
279 280 280 282 283 284 286 288 290 292 295 296 298 298 299 297 295 292 288 285 284 284 284 283 283 284 286 288 288 287 288 289 287 284 282 283 285 287 291 294 294 293 293 295 295 295 293 292 292 292 291 289 289 288 288 288 288 288 288 288 288 288 287 287 287 286 286 286 285 285 284 284 283 283 282 281 280 279 278 277 276 274 273 272 271 269
281 282 282 284 286 288 290 292 293 295 296 296 296 296 296 296 294 290 286 285 286 286 286 285 286 287 288 288 288 288 292 293 290 286 283 283 284 287 292 295 296 295 295 295 295 295 294 292 292 292 290 289 288 287 288 289 289 290 290 289 289 288 287 286 285 284 284 283 282 282 282 281 281 280 280 279 279 278 277 276 275 274 273 273 271 269
284 285 286 288 290 293 294 295 296 296 296 296 296 295 295 293 289 286 283 286 288 288 285 285 286 288 289 289 290 292 294 293 290 288 287 285 284 287 293 298 299 298 298 296 295 293 291 289 288 288 287 287 287 288 290 291 292 292 291 290 289 287 286 284 283 283 282 282 281 281 280 280 279 279 278 278 277 277 276 275 275 274 273 271 269 267
288 290 292 294 296 297 298 297 297 296 295 294 294 293 291 286 281 279 282 286 287 285 282 283 284 286 288 291 292 293 291 288 289 292 299 293 287 287 295 299 299 300 300 299 296 293 287 284 284 286 288 291 293 294 295 295 294 292 291 289 287 286 285 284 284 283 283 283 283 282 281 281 280 279 278 278 277 276 276 275 275 274 273 269 267 264
298 300 300 300 300 300 298 296 295 293 292 291 290 289 285 279 274 274 278 281 281 281 281 283 284 286 289 292 292 291 287 286 293 304 312 300 291 290 297 298 299 300 303 303 301 297 291 286 286 289 293 296 297 297 296 295 293 291 289 288 287 286 285 284 285 285 285 285 285 284 284 283 282 281 280 279 278 277 277 276 275 275 272 268 265 262
307 306 304 302 301 299 296 294 292 291 290 289 288 286 282 277 273 272 274 275 275 277 279 282 284 286 288 290 290 288 286 290 300 310 313 299 291 292 298 297 297 298 301 301 302 302 301 298 296 295 297 297 297 295 294 293 292 291 290 289 288 286 286 286 286 286 287 287 286 286 285 284 284 283 282 281 280 278 278 277 276 275 272 268 265 263
307 305 301 300 298 296 294 291 290 289 288 288 286 284 281 277 274 273 272 272 272 273 276 279 281 282 282 281 280 281 283 290 298 304 304 295 289 290 295 295 295 296 296 292 291 293 298 301 303 303 302 298 296 294 293 293 292 291 290 289 288 287 287 288 288 288 288 288 287 287 286 285 284 283 282 281 280 279 278 277 276 274 271 268 266 264
303 301 299 298 296 294 291 290 289 289 288 288 286 285 282 280 277 275 273 272 271 271 272 276 278 279 279 277 276 276 278 284 290 296 299 295 291 290 294 294 294 294 294 289 284 282 283 290 296 300 300 298 296 295 295 294 292 291 289 289 288 288 290 291 291 290 290 289 288 287 286 285 284 283 282 281 280 279 278 277 275 273 270 267 264 263
300 299 297 296 294 292 291 290 290 290 289 288 287 286 285 283 280 278 276 274 271 269 269 271 274 277 279 279 278 277 278 280 286 292 299 295 291 290 292 292 292 293 294 291 287 284 280 283 289 294 297 297 295 294 294 294 292 291 290 290 291 292 292 293 292 291 290 289 288 287 286 285 283 282 281 280 279 278 277 276 274 273 270 267 264 262
298 297 295 294 293 293 293 293 292 291 290 289 288 287 286 285 283 281 279 276 273 271 268 268 268 270 273 275 276 278 279 282 288 294 297 292 288 287 290 289 291 292 292 290 289 287 284 285 288 291 294 296 295 293 292 292 293 294 293 293 292 291 290 291 291 290 290 288 287 285 284 283 282 281 279 278 277 276 276 275 274 273 271 268 266 263
296 295 294 294 295 295 296 295 294 294 292 291 290 290 289 288 287 284 282 280 277 275 272 269 267 265 264 266 269 272 276 282 287 290 290 286 284 284 285 286 287 289 288 287 287 287 287 288 289 290 291 292 293 293 293 294 296 296 295 293 291 289 288 288 288 288 288 287 285 284 283 283 282 280 279 278 277 277 276 276 275 273 272 269 267 264
294 293 294 295 296 296 296 296 296 295 294 294 293 292 292 291 289 288 285 282 280 277 275 272 269 265 261 261 262 265 271 277 281 283 282 281 280 279 278 281 283 283 282 283 284 285 286 288 289 289 289 288 290 293 297 300 300 298 294 293 292 291 290 289 287 286 285 284 284 284 285 285 284 282 281 280 279 279 278 276 274 273 271 269 267 265
293 294 295 296 297 297 297 297 296 296 296 296 296 295 293 292 290 288 286 283 280 277 275 273 271 268 265 263 262 263 267 271 274 275 276 275 274 272 273 276 278 278 275 276 278 281 283 285 288 289 289 287 287 289 294 298 298 297 295 294 293 291 290 289 288 287 285 285 285 286 286 285 284 284 283 282 282 280 278 275 273 271 270 268 267 265
294 295 296 297 297 298 297 297 297 297 296 296 295 294 292 290 288 287 285 283 281 279 277 276 275 273 271 268 267 266 267 268 269 270 270 269 268 268 269 272 274 274 273 272 272 274 276 278 281 284 287 289 290 290 292 293 293 294 296 296 293 290 287 288 288 288 287 287 287 286 285 284 283 283 283 283 282 280 278 277 274 272 270 268 266 264
296 295 295 296 297 297 297 296 296 296 296 295 293 292 290 289 289 288 286 285 283 282 281 280 279 278 277 276 275 273 273 271 269 268 267 264 262 261 264 267 270 272 274 272 270 269 269 272 274 277 279 282 286 289 291 290 291 293 297 297 294 291 291 292 291 290 287 285 284 284 285 286 286 285 284 283 281 279 277 277 276 274 272 269 267 266
296 296 296 298 298 297 295 294 294 295 295 294 293 291 290 290 290 291 291 290 288 287 287 286 285 284 283 281 280 279 276 272 269 267 264 261 259 258 260 262 266 269 272 272 271 269 269 271 273 275 276 278 281 284 285 286 289 291 293 291 290 290 292 292 290 288 286 284 285 286 288 289 289 288 286 284 280 277 274 275 275 275 273 268 264 263
296 296 298 299 298 297 296 295 295 294 293 292 291 290 290 290 291 292 294 295 294 294 295 295 294 293 292 289 286 282 277 271 267 264 263 260 258 257 258 260 263 266 269 270 271 270 269 270 272 273 275 278 280 282 283 285 287 288 288 287 288 290 291 288 287 287 289 290 291 291 291 290 289 288 288 286 284 280 276 273 272 272 272 269 264 259
296 296 297 297 297 297 297 297 296 295 294 292 290 289 289 289 290 291 292 293 294 296 297 297 296 295 295 294 293 291 286 279 274 271 268 264 261 260 260 260 261 262 264 267 270 271 272 272 272 273 275 277 278 279 281 284 286 287 285 286 288 292 293 293 295 297 297 294 293 292 290 290 290 290 290 289 286 283 279 275 273 271 270 268 265 260
296 296 296 296 297 297 297 296 296 295 294 292 291 290 290 289 289 289 289 290 292 294 295 296 295 294 292 292 294 296 297 293 288 282 276 271 266 263 262 262 262 261 261 264 268 273 278 277 275 274 276 277 278 278 279 282 284 285 284 284 284 284 284 291 297 300 299 295 293 292 292 293 293 294 293 290 288 285 282 279 277 274 271 268 265 263
296 296 297 297 298 298 297 296 295 295 295 293 292 291 290 291 290 290 289 290 291 292 293 295 295 294 292 293 295 298 299 299 297 292 285 279 275 272 269 267 265 264 263 263 265 269 275 277 279 279 280 279 277 276 277 279 281 282 282 283 282 282 281 287 292 295 296 295 295 296 297 298 298 298 297 295 293 290 288 286 284 282 279 274 270 267
297 298 298 299 298 297 296 296 297 297 295 293 292 292 293 294 293 292 290 290 291 291 292 294 293 291 290 293 296 298 299 300 301 300 298 294 289 285 279 275 271 269 267 266 265 266 267 271 275 279 282 280 276 274 273 276 279 281 283 285 287 289 289 290 292 293 294 295 296 299 302 303 302 300 298 298 298 296 294 292 290 288 286 282 278 274
299 299 300 299 299 298 297 298 298 298 297 296 295 295 296 296 295 293 292 291 291 291 292 292 290 288 287 290 293 295 297 299 301 302 302 301 298 295 291 285 280 277 274 272 270 268 266 266 267 269 273 276 277 276 275 276 277 280 284 289 292 294 294 293 293 293 294 294 297 300 305 306 304 302 300 300 300 300 299 298 296 292 289 286 283 281
299 300 300 300 299 299 299 299 299 299 298 297 297 297 297 297 297 296 294 294 292 292 292 292 290 289 288 289 290 291 293 295 297 299 300 301 301 300 297 294 290 287 282 279 277 274 271 267 264 262 262 266 270 274 276 277 277 279 284 289 293 294 293 293 295 296 297 296 297 300 304 305 304 303 303 303 303 303 304 304 302 297 290 286 285 285
298 298 298 298 298 298 298 299 299 298 298 298 298 299 299 299 299 297 294 293 292 290 290 290 290 290 291 291 291 292 293 293 294 296 298 300 301 301 301 300 298 295 292 287 284 281 278 273 267 261 256 257 261 266 272 275 277 280 283 287 290 292 293 295 297 299 300 299 300 300 301 300 299 299 300 301 303 305 307 308 306 303 298 293 291 290
296 295 296 297 296 296 296 297 298 298 298 298 299 299 299 299 298 296 293 292 290 288 287 288 288 289 290 291 292 293 294 294 295 295 296 299 301 303 303 303 303 302 299 296 294 292 290 285 278 269 260 256 256 260 269 275 279 282 284 286 289 291 293 295 298 300 302 302 302 302 301 299 298 298 299 301 303 306 309 310 311 311 310 307 304 301
296 295 296 296 295 295 296 296 297 297 296 297 297 297 297 297 297 296 294 293 291 290 289 288 287 287 288 290 292 293 293 293 294 295 296 299 301 302 302 303 304 305 304 303 303 303 303 301 298 291 280 271 264 262 270 279 286 289 290 291 293 294 294 296 298 301 303 303 303 302 302 301 302 303 304 305 306 308 311 313 314 314 314 314 311 309